Tracking 30308 objects as of 19-Apr-2025
HD Live streaming from Space Station
objects crossing your sky now

FENGYUN 1C DEB

Track FENGYUN 1C DEB now!
10-day predictions


NORAD ID: 31032
Int'l Code: 1999-025BEA
Perigee: 792.1 km
Apogee: 1,004.3 km
Inclination: 99.4 °
Period: 102.8 minutes
Semi major axis: 7269 km
RCS: 0.0169 m2 (small)
Launch date: May 10, 1999
Source: People's Republic of China (PRC)
Launch site: Taiyaun Space Center, China (TSC)

Note: This is SATELLITE DEBRIS
Your satellite tracking list
Your tracking list is empty




NASA's NSSDC Master Catalog

Two Line Element Set (TLE):
1 31032U 99025BEA 25107.96132851  .00003878  00000-0  23960-2 0  9992
2 31032  99.4011 109.5393 0145951 128.8411 261.9827 14.00794504916370
Source of the keplerian elements: AFSPC